New Castle, PA

3:08 PM EDT on October 01, 2016 (GMT -0400)
New Castle Municipal

Weather History for KUCP - February, 2013

Change the Weather History Date:

Saturday, February 23, 2013

  Actual Average Record
Temperature  
Mean Temperature 34 °F -  
Max Temperature 39 °F 47 °F 67 °F (1930)
Min Temperature 26 °F 24 °F -9 °F (2015)
Degree Days  
Heating Degree Days 32    
Moisture  
Dew Point 30 °F    
Average Humidity 93    
Maximum Humidity 100    
Minimum Humidity 70    
Precipitation  
Precipitation 0.00 in - - ()
Sea Level Pressure  
Sea Level Pressure 29.97 in    
Wind  
Wind Speed 0 mph (WSW)    
Max Wind Speed 9 mph    
Max Gust Speed -    
Visibility 3 miles    
Events Fog    
Averages and records for this station are not official NWS values.
T = Trace of Precipitation, MM = Missing Value Source: NWS Daily Summary

Daily Weather History Graph

Daily Weather History Graph

Search for Another Location

Airport or City:

Trip Planner

Search our weather history database for the weather conditions in past years. The results will help you decide how hot, cold, wet, or windy it might be!

Date:

Astronomy

Feb. 23, 2013 Rise Set
Actual Time 7:04 AM EST 6:05 PM EST
Civil Twilight 6:36 AM EST 6:33 PM EST
Nautical Twilight 6:04 AM EST 7:05 PM EST
Astronomical Twilight 5:33 AM EST 7:37 PM EST
Moon 4:14 PM EST (2/23) 5:26 AM EST (2/23)
Length of Visible Light 11h 57m
Length of Day
11h 01m
Waxing Gibbous, 95% of the Moon is Illuminated
Feb 23
Waxing Gibbous
Feb 25
Full
Mar 4
Last Quarter
Mar 11
New
Mar 19
First Quarter

Hourly Weather History & Observations

Time (EST) Temp. Windchill Dew Point Humidity Pressure Visibility Wind Dir Wind Speed Gust Speed Precip Events Conditions
12:03 AM 32.0 °F - 30.2 °F 93% 29.99 in 1.2 mi Calm Calm - 0.00 in   Overcast
12:06 AM 32.0 °F - 30.2 °F 93% 30.00 in 1.5 mi Calm Calm - 0.00 in   Overcast
12:27 AM 32.0 °F - 30.2 °F 93% 30.00 in 1.2 mi Calm Calm - 0.00 in   Overcast
12:37 AM 32.0 °F - 30.2 °F 93% 29.99 in 1.5 mi Calm Calm - 0.00 in   Overcast
12:56 AM 32.0 °F - 31.1 °F 96% 30.06 in 1.8 mi Calm Calm - 0.00 in   Overcast
1:08 AM 32.0 °F - 30.2 °F 93% 29.98 in 2.0 mi Calm Calm - N/A   Overcast
1:18 AM 32.0 °F - 30.2 °F 93% 29.98 in 3.0 mi Calm Calm - N/A   Overcast
1:34 AM 32.0 °F - 30.2 °F 93% 29.98 in 4.0 mi Calm Calm - N/A   Overcast
1:56 AM 32.0 °F - 31.1 °F 96% 30.06 in 2.5 mi Calm Calm - 0.00 in   Overcast
2:07 AM 32.0 °F - 30.2 °F 93% 29.98 in 5.0 mi Calm Calm - N/A   Overcast
2:28 AM 32.0 °F - 30.2 °F 93% 29.97 in 2.5 mi Calm Calm - 0.00 in   Overcast
2:56 AM 32.0 °F - 31.1 °F 96% 30.03 in 1.5 mi Calm Calm - 0.00 in   Overcast
3:38 AM 32.0 °F - 30.2 °F 93% 29.94 in 1.0 mi Calm Calm - N/A   Overcast
3:56 AM 31.1 °F - 31.1 °F 100% 30.01 in 1.2 mi Calm Calm - N/A   Overcast
3:59 AM 30.2 °F - 30.2 °F 100% 29.93 in 0.8 mi Calm Calm - N/A   Overcast
4:09 AM 32.0 °F - 30.2 °F 93% 29.94 in 1.2 mi Calm Calm - N/A   Overcast
4:17 AM 32.0 °F - 30.2 °F 93% 29.93 in 1.5 mi Calm Calm - N/A   Overcast
4:31 AM 30.2 °F - 30.2 °F 100% 29.94 in 1.0 mi Calm Calm - N/A   Overcast
4:40 AM 30.2 °F - 30.2 °F 100% 29.94 in 1.0 mi Calm Calm - N/A   Overcast
4:43 AM 30.2 °F - 30.2 °F 100% 29.94 in 0.5 mi Calm Calm - N/A Fog Light Freezing Fog
4:56 AM 31.1 °F - 31.1 °F 100% 30.03 in 0.5 mi Calm Calm - N/A Fog Light Freezing Fog
5:03 AM 30.2 °F - 30.2 °F 100% 29.95 in 0.2 mi Calm Calm - N/A Fog Light Freezing Fog
5:10 AM 30.2 °F - 30.2 °F 100% 29.95 in 0.2 mi Calm Calm - N/A Fog Light Freezing Fog
5:19 AM 30.2 °F - 30.2 °F 100% 29.95 in 0.2 mi Calm Calm - N/A Fog Light Freezing Fog
5:36 AM 30.2 °F - 30.2 °F 100% 29.95 in 0.5 mi Calm Calm - N/A Fog Light Freezing Fog
5:49 AM 30.2 °F - 30.2 °F 100% 29.96 in 0.8 mi Calm Calm - N/A   Overcast
5:56 AM 31.1 °F - 31.1 °F 100% 30.04 in 0.5 mi Calm Calm - N/A Fog Light Freezing Fog
6:14 AM 30.2 °F - 30.2 °F 100% 29.97 in 0.2 mi Calm Calm - N/A Fog Light Freezing Fog
6:29 AM 30.2 °F - 30.2 °F 100% 29.95 in 0.8 mi Calm Calm - N/A   Overcast
6:32 AM 30.2 °F - 30.2 °F 100% 29.96 in 1.2 mi Calm Calm - N/A   Overcast
6:39 AM 30.2 °F - 30.2 °F 100% 29.95 in 1.5 mi Calm Calm - N/A   Overcast
6:56 AM 31.1 °F 27.7 °F 31.1 °F 100% 30.03 in 1.5 mi ENE 3.5 mph - N/A   Overcast
6:59 AM 30.2 °F - 30.2 °F 100% 29.95 in 1.2 mi Calm Calm - N/A   Overcast
7:18 AM 30.2 °F - 30.2 °F 100% 29.96 in 1.0 mi Calm Calm - N/A   Overcast
7:24 AM 30.2 °F - 30.2 °F 100% 29.95 in 0.5 mi Calm Calm - N/A Fog Light Freezing Fog
7:49 AM 30.2 °F - 30.2 °F 100% 29.96 in 0.5 mi Calm Calm - N/A Fog Light Freezing Fog
7:56 AM 31.1 °F - 31.1 °F 100% 30.03 in 0.5 mi Calm Calm - N/A Fog Light Freezing Fog
8:04 AM 30.2 °F - 30.2 °F 100% 29.95 in 0.2 mi Calm Calm - N/A Fog Light Freezing Fog
8:14 AM 32.0 °F - 30.2 °F 93% 29.95 in 0.5 mi Calm Calm - N/A Fog Fog
8:27 AM 32.0 °F - 30.2 °F 93% 29.94 in 0.8 mi Calm Calm - N/A   Overcast
8:30 AM 32.0 °F - 30.2 °F 93% 29.94 in 1.0 mi Calm Calm - N/A   Mostly Cloudy
8:39 AM 32.0 °F - 32.0 °F 100% 29.94 in 1.5 mi Calm Calm - N/A   Overcast
8:56 AM 32.0 °F - 32.0 °F 100% 30.02 in 0.8 mi Calm Calm - N/A   Overcast
9:16 AM 33.8 °F 30.8 °F 33.8 °F 100% 29.94 in 1.2 mi Variable 3.5 mph - N/A   Overcast
9:24 AM 33.8 °F 29.6 °F 32.0 °F 93% 29.94 in 1.5 mi SSW 4.6 mph - N/A   Overcast
9:43 AM 33.8 °F - 33.8 °F 100% 29.94 in 2.0 mi Calm Calm - N/A   Overcast
9:56 AM 34.0 °F - 32.9 °F 96% 30.01 in 3.0 mi Calm Calm - N/A   Mostly Cloudy
10:56 AM 36.0 °F - 32.9 °F 89% 30.00 in 6.0 mi Calm Calm - N/A   Mostly Cloudy
11:56 AM 36.9 °F - 32.9 °F 86% 29.99 in 8.0 mi Calm Calm - N/A   Overcast
12:56 PM 36.9 °F 31.4 °F 31.1 °F 80% 29.97 in 10.0 mi SW 6.9 mph - N/A   Overcast
1:56 PM 37.9 °F 33.5 °F 31.1 °F 76% 29.96 in 10.0 mi WSW 5.8 mph - N/A   Overcast
2:56 PM 36.9 °F 33.1 °F 30.0 °F 76% 29.96 in 10.0 mi West 4.6 mph - N/A   Overcast
3:39 PM 39.2 °F 33.0 °F 30.2 °F 70% 29.88 in 10.0 mi West 9.2 mph - N/A   Mostly Cloudy
3:56 PM 37.9 °F 32.7 °F 30.0 °F 73% 29.96 in 10.0 mi WSW 6.9 mph - N/A   Mostly Cloudy
4:56 PM 36.9 °F 34.3 °F 29.1 °F 74% 29.94 in 10.0 mi WSW 3.5 mph - N/A   Scattered Clouds
5:56 PM 34.9 °F - 27.1 °F 73% 29.96 in 10.0 mi Calm Calm - N/A   Clear
6:56 PM 32.0 °F - 26.1 °F 79% 29.97 in 10.0 mi Calm Calm - N/A   Clear
7:56 PM 32.0 °F - 26.1 °F 79% 29.96 in 8.0 mi Calm Calm - N/A   Clear
8:56 PM 30.0 °F - 24.1 °F 79% 29.96 in 10.0 mi Calm Calm - N/A   Clear
9:56 PM 28.0 °F 22.8 °F 23.0 °F 81% 29.98 in 10.0 mi NNW 4.6 mph - N/A   Clear
10:56 PM 28.0 °F - 23.0 °F 81% 29.97 in 10.0 mi Calm Calm - N/A   Overcast
11:56 PM 26.1 °F - 22.1 °F 85% 29.95 in 10.0 mi Calm Calm - N/A   Clear